Plattsburgh, NY

8:30 PM EST on December 16, 2017 (GMT -0500)
Plattsburgh International

Weather History for KPBG - December, 2012

Change the Weather History Date:

Thursday, December 13, 2012

  Actual Average Record
Temperature  
Mean Temperature 31 °F 26 °F  
Max Temperature 39 °F 34 °F 57 °F (1991)
Min Temperature 22 °F 18 °F -6 °F (1982)
Degree Days  
Heating Degree Days 34 39  
Month to date heating degree days 392 481  
Since 1 July heating degree days 1955 2115  
Cooling Degree Days 0 0  
Month to date cooling degree days 0  
Year to date cooling degree days 346  
Moisture  
Dew Point 25 °F    
Average Humidity 76    
Maximum Humidity 92    
Minimum Humidity 59    
Precipitation  
Precipitation 0.00 in - 1.75 in (1983)
Month to date precipitation 0.73  
Year to date precipitation 25.31  
Sea Level Pressure  
Sea Level Pressure 30.37 in    
Wind  
Wind Speed 4 mph (South)    
Max Wind Speed 16 mph    
Max Gust Speed 18 mph    
Visibility 10 miles    
Events      
T = Trace of Precipitation, MM = Missing Value Source: NWS Daily Summary

Daily Weather History Graph

Daily Weather History Graph

Search for Another Location

Airport or City:

Trip Planner

Search our weather history database for the weather conditions in past years. The results will help you decide how hot, cold, wet, or windy it might be!

Date:

Astronomy

Dec. 13, 2012 Rise Set
Actual Time 7:22 AM EST 4:13 PM EST
Civil Twilight 6:49 AM EST 4:47 PM EST
Nautical Twilight 6:12 AM EST 5:24 PM EST
Astronomical Twilight 5:36 AM EST 5:59 PM EST
Moon 7:27 AM EST (12/13) 4:54 PM EST (12/13)
Length of Visible Light 9h 57m
Length of Day
8h 50m
New Moon, 0% of the Moon is Illuminated
Dec 13
New Moon
Dec 20
First Quarter
Dec 28
Full
Jan 4
Last Quarter
Jan 11
New

Hourly Weather History & Observations

Time (EST) Temp. Windchill Dew Point Humidity Pressure Visibility Wind Dir Wind Speed Gust Speed Precip Events Conditions
12:53 AM 32.0 °F - 27.0 °F 82% 30.39 in 10.0 mi Calm Calm - N/A   Overcast
1:53 AM 30.9 °F - 28.0 °F 89% 30.40 in 10.0 mi Calm Calm - N/A   Overcast
2:53 AM 34.0 °F - 27.0 °F 75% 30.42 in 10.0 mi Calm Calm - N/A   Overcast
3:53 AM 32.0 °F 27.5 °F 27.0 °F 82% 30.42 in 10.0 mi NNW 4.6 mph - N/A   Overcast
4:53 AM 30.9 °F - 27.0 °F 85% 30.42 in 10.0 mi Calm Calm - N/A   Overcast
5:53 AM 26.1 °F - 24.1 °F 92% 30.44 in 10.0 mi Calm Calm - N/A   Clear
6:53 AM 25.0 °F - 23.0 °F 92% 30.45 in 9.0 mi Calm Calm - N/A   Clear
7:53 AM 24.1 °F - 21.9 °F 91% 30.45 in 9.0 mi Calm Calm - N/A   Clear
8:53 AM 30.9 °F - 27.0 °F 85% 30.45 in 10.0 mi Calm Calm - N/A   Clear
9:53 AM 34.0 °F - 25.0 °F 70% 30.45 in 10.0 mi Calm Calm - N/A   Clear
10:53 AM 36.0 °F 30.3 °F 27.0 °F 70% 30.42 in 10.0 mi SE 6.9 mph - N/A   Clear
11:53 AM 37.0 °F 29.8 °F 27.0 °F 67% 30.40 in 10.0 mi SSE 10.4 mph - N/A   Mostly Cloudy
12:53 PM 37.9 °F 29.6 °F 27.0 °F 65% 30.37 in 10.0 mi SE 13.8 mph - N/A   Clear
1:53 PM 39.0 °F 31.4 °F 27.0 °F 62% 30.35 in 10.0 mi SSE 12.7 mph - N/A   Clear
2:53 PM 37.9 °F 30.5 °F 25.0 °F 60% 30.34 in 10.0 mi South 11.5 mph - N/A   Clear
3:53 PM 36.0 °F 30.3 °F 24.1 °F 62% 30.33 in 10.0 mi SSE 6.9 mph - N/A   Clear
4:53 PM 33.1 °F - 24.1 °F 70% 30.34 in 10.0 mi Calm Calm - N/A   Clear
6:53 PM 32.0 °F 28.7 °F 24.1 °F 73% 30.30 in 10.0 mi South 3.5 mph - N/A   Clear
7:53 PM 27.0 °F - 23.0 °F 85% 30.28 in 10.0 mi Calm Calm - N/A   Clear
8:53 PM 27.0 °F - 24.1 °F 89% 30.27 in 10.0 mi Calm Calm - N/A   Clear
9:53 PM 28.9 °F 23.9 °F 24.1 °F 82% 30.25 in 10.0 mi SSW 4.6 mph - N/A   Clear
10:53 PM 32.0 °F 27.5 °F 24.1 °F 73% 30.24 in 10.0 mi SSW 4.6 mph - N/A   Mostly Cloudy
11:53 PM 30.0 °F - 25.0 °F 82% 30.22 in 10.0 mi Calm Calm - N/A   Partly Cloudy